Torna al catalogo

FENGYUN 1C DEB

AttivoSSO
NORAD 31826·DEBRIS·🇨🇳 China

Lanciato May 10, 1999 da Taiyuan Satellite Launch Center

Loading…

Prossimi Passaggi (prossime 24 ore)

TLE

AggiornatoSource: Space-Track

Epoca: Sep 12, 2026, 10:39 UTC

1 31826U 99025CHQ 26255.44425448  .00000395  00000-0  19091-3 0  9990
2 31826  98.6463 244.8897 0124602 119.4971  32.8015 14.19716689996978

Traccia FENGYUN 1C DEB in tempo reale con AllMySat

Download on the App Store